This is the latest recevied weather packets stored in our database for station/object N2XP-2. If no packets are shown the sender has not sent any weather packets the latest 10 day(s).
| Time | Temp. | Humidity | Pressure | Rain* | Wind** | Luminosity | Snow |
|---|---|---|---|---|---|---|---|
| 1778079728 | 22.22° C | 66% | 1010.1 hPa | 0 mm | 1.34 m/s, 256° | - | - |
| 1778079649 | 22.22° C | 66% | 1010.2 hPa | 0 mm | 2.24 m/s, 135° | - | - |
| 1778079384 | 22.78° C | 66% | 1010.1 hPa | 0 mm | 1.79 m/s, 218° | - | - |
| 1778079346 | 22.22° C | 66% | 1010.1 hPa | 0 mm | 1.34 m/s, 256° | - | - |
| 1778079178 | 22.78° C | 66% | 1010.1 hPa | 0 mm | 1.34 m/s, 256° | - | - |
| 1778079047 | 22.78° C | 66% | 1010.1 hPa | 0 mm | 1.79 m/s, 218° | - | - |
| 1778078748 | 22.78° C | 66% | 1010.1 hPa | 0 mm | 1.34 m/s, 256° | - | - |
| 1778078579 | 22.78° C | 65% | 1010.1 hPa | 0 mm | 1.34 m/s, 177° | - | - |
| 1778078579 | 22.78° C | 64% | 1010 hPa | 0 mm | 2.68 m/s, 269° | - | - |
| 1778078552 | 22.22° C | 65% | 1010.1 hPa | 0 mm | 2.24 m/s, 225° | - | - |
| 1778078544 | 22.78° C | 65% | 1010.1 hPa | 0 mm | 1.34 m/s, 177° | - | - |
| 1778078537 | 22.78° C | 64% | 1010 hPa | 0 mm | 2.68 m/s, 269° | - | - |
| 1778078444 | 22.78° C | 65% | 1010.1 hPa | 0 mm | 2.68 m/s, 225° | - | - |
| 1778078145 | 22.78° C | 66% | 1010.1 hPa | 0 mm | 1.79 m/s, 211° | - | - |
| 1778077846 | 22.78° C | 66% | 1010.2 hPa | 0 mm | 1.34 m/s, 179° | - | - |
| 1778077543 | 22.78° C | 65% | 1010.2 hPa | 0 mm | 0.89 m/s, 210° | - | - |
| 1778077244 | 22.22° C | 65% | 1010.1 hPa | 0 mm | 2.24 m/s, 225° | - | - |
| 1778077004 | 22.78° C | 65% | 1010.1 hPa | 0 mm | 1.34 m/s, 177° | - | - |
| 1778076945 | 22.78° C | 65% | 1010.1 hPa | 0 mm | 1.34 m/s, 177° | - | - |
| 1778076642 | 22.78° C | 64% | 1010 hPa | 0 mm | 2.68 m/s, 269° | - | - |
| 1778076626 | 22.78° C | 65% | 1010.3 hPa | 0 mm | 1.34 m/s, 248° | - | - |
| 1778076618 | 22.78° C | 65% | 1010.3 hPa | 0 mm | 1.34 m/s, 214° | - | - |
| 1778076324 | 22.78° C | 64% | 1010.1 hPa | 0 mm | 1.34 m/s, 233° | - | - |
| 1778076025 | 23.33° C | 64% | 1010.1 hPa | 0 mm | 2.24 m/s, 233° | - | - |
| 1778075722 | 23.33° C | 64% | 1010.1 hPa | 0 mm | 1.79 m/s, 110° | - | - |
* Rain latest hour (hover to see other rain measurements)
** Current wind speed in m/s (hover to see current wind gust speed)